Regional Weather Roundup
Issued by NWS

Home | Current Version | Previous Version | Text Only | Print | Product List | Glossary Off
Versions: 1 2 3 4 5 6 7 8 9 10 11 12 13 14 15 16 17 18 19 20 21 22 23 24 25 26 27 28 29 30 31 32 33 34 35 36 37 38 39 40 41 42 43 44 45 46 47 48 49 50

370
ASUS43 KOAX 232202
RWRNE

WEATHER ROUNDUP FOR NEBRASKA
NATIONAL WEATHER SERVICE OMAHA NE
500 PM CDT TUE AUG 23 2016

NOTES: SATELLITE DATA IS BEING USED TO AUGMENT CLOUD COVER ABOVE
       12000 FEET.
       "FAIR" INDICATES FEW OR NO CLOUDS BELOW 12,000 FEET WITH NO
       SIGNIFICANT WEATHER AND/OR OBSTRUCTIONS TO VISIBILITY.

  * THESE STATIONS DO NOT REPORT WEATHER SUCH AS RAIN...SNOW OR FOG.

NEZ001>004-019>022-054>056-232300-
NEBRASKA PANHANDLE

CITY           SKY/WX    TMP DP  RH WIND       PRES   REMARKS
SCOTTSBLUFF    SUNNY     88  32  13 N12       29.98R
ALLIANCE       SUNNY     86  38  18 N14       29.96R
CHADRON        SUNNY     87  27  11 NE18      29.94R
KIMBALL        SUNNY     81  34  18 N12G18    30.04S
SIDNEY         SUNNY     87  32  14 N17       30.01R
$$

NEZ057>060-069>072-079>082-232300-
SOUTHWEST NEBRASKA

CITY           SKY/WX    TMP DP  RH WIND       PRES   REMARKS
NORTH PLATTE   SUNNY     89  48  24 NW14G23   29.84R
IMPERIAL       SUNNY     91  35  13 N18       29.89R
LEXINGTON      SUNNY     89  62  40 S3        29.82S HX  90
MCCOOK         SUNNY     93  61  34 CALM      29.82S HX  93
OGALLALA       SUNNY     92  27   9 N16G22    29.91R
$$

NEZ005>010-023>029-035>040-094-232300-
NORTH CENTRAL NEBRASKA

CITY           SKY/WX    TMP DP  RH WIND       PRES   REMARKS
VALENTINE      SUNNY     86  43  22 N20G31    29.87R
AINSWORTH      SUNNY     84  53  33 NW16G23   29.85R
BROKEN BOW     SUNNY     86  66  51 S5        29.82S
O`NEILL        SUNNY     89  63  41 S14       29.80S HX  90
ORD            SUNNY     87  66  49 S13       29.80S
THEDFORD       SUNNY     88  49  26 N16G23    29.89R
$$

NEZ041-046>049-061>064-073>077-083>087-232300-
SOUTH CENTRAL NEBRASKA

CITY           SKY/WX    TMP DP  RH WIND       PRES   REMARKS
GRAND ISLAND   PTSUNNY   93  68  43 S16G23    29.80F HX  97
AURORA         MOSUNNY   89  69  51 S13G22    29.80F HX  94
HASTINGS       MOSUNNY   91  67  44 S14G21    29.81S HX  94
HEBRON         MOSUNNY   88  71  57 S16G24    29.81F HX  94
HOLDREGE       SUNNY     89  64  43 W9        29.81R HX  90
KEARNEY *      SUNNY     91  64  40 S13       29.79S HX  93
$$

NEZ011>018-030>034-042>045-232300-
NORTHEAST NEBRASKA

CITY           SKY/WX    TMP DP  RH WIND       PRES   REMARKS
NORFOLK        SUNNY     86  70  58 S20G26    29.79F HX  90
ALBION         MOSUNNY   86  71  59 S12       29.80F HX  91
BLAIR          CLOUDY    83  74  75 S13G23    29.83F
FREMONT        CLOUDY    84  73  69 SE12      29.83S HX  90
TEKAMAH        PTSUNNY   82  73  74 SE14      29.81F
WAYNE          PTSUNNY   83  74  74 S16G22    29.81R HX  90
$$

NEZ050>053-065>068-078-088>093-232300-
SOUTHEAST NEBRASKA

CITY           SKY/WX    TMP DP  RH WIND       PRES   REMARKS
LINCOLN        MOSUNNY   90  72  55 S21       29.81F HX  97
OMAHA EPPLEY   PTSUNNY   85  73  67 S23G29    29.82F HX  91
BEATRICE       PTSUNNY   88  72  58 S16G25    29.83F HX  95
FALLS CITY     MOSUNNY   87  74  64 S14G29    29.86F HX  95
NEBRASKA CITY  CLOUDY    84  74  73 S16G26    29.86S HX  91
PLATTSMOUTH    CLOUDY    84  75  73 SE15G24   29.84F HX  92
$$

NEZ044-045-051>053-067-232300-
OMAHA AREA

CITY           SKY/WX    TMP DP  RH WIND       PRES   REMARKS
OMAHA EPPLEY   PTSUNNY   85  73  67 S23G29    29.82F HX  91
BLAIR          CLOUDY    83  74  75 S13G23    29.83F
FREMONT        CLOUDY    84  73  69 SE12      29.83S HX  90
MILLARD        PTSUNNY   86  75  70 SE21G26   29.82F HX  95
OFFUTT AFB     MOSUNNY   85  75  74 SE23      29.82F HX  93
PLATTSMOUTH    CLOUDY    84  75  73 SE15G24   29.84F HX  92
WAHOO          MOCLDY    86  74  67 S15       29.82S HX  95
$$




USA.gov is the U.S. government's official web portal to all federal, state and local government web resources and services.